QPF
0.05 0.06 0.05 0.04 0.04 0.06 0.06 0.05 0.04 0.03 0.03 0.02 0.02 0.02 0.02 0.02 0.01 0.01 0.01 0.00 0.00 0.01 0.01 0.02 0.02 0.02 0.02 0.02 0.02 0.02 0.03 0.03 0.03 0.02 0.01 0.01 0.01 0.01 0.01 0.01 0.02 0.02 0.03
0.04 0.06 0.05 0.05 0.05 0.05 0.05 0.05 0.05 0.04 0.04 0.04 0.03 0.02 0.02 0.02 0.02 0.02 0.01 0.01 0.01 0.01 0.02 0.02 0.02 0.02 0.02 0.02 0.02 0.02 0.03 0.03 0.03 0.02 0.02 0.01 0.01 0.01 0.01 0.01 0.02 0.03 0.03
0.05 0.05 0.05 0.05 0.06 0.05 0.04 0.04 0.05 0.04 0.05 0.04 0.03 0.03 0.02 0.02 0.02 0.02 0.02 0.02 0.02 0.02 0.02 0.03 0.03 0.03 0.03 0.03 0.03 0.03 0.03 0.03 0.03 0.03 0.03 0.02 0.01 0.01 0.01 0.01 0.02 0.02 0.03
0.07 0.05 0.04 0.05 0.06 0.05 0.03 0.03 0.04 0.05 0.05 0.05 0.04 0.04 0.04 0.02 0.02 0.02 0.02 0.03 0.03 0.03 0.03 0.03 0.03 0.03 0.03 0.03 0.03 0.04 0.05 0.06 0.05 0.05 0.03 0.02 0.01 0.02 0.02 0.02 0.02 0.03 0.03
0.08 0.06 0.04 0.04 0.04 0.03 0.03 0.03 0.03 0.07 0.06 0.05 0.04 0.03 0.02 0.02 0.02 0.02 0.02 0.03 0.03 0.04 0.04 0.04 0.03 0.03 0.02 0.03 0.03 0.05 0.06 0.07 0.06 0.04 0.03 0.02 0.02 0.02 0.02 0.02 0.03 0.04 0.05
0.07 0.07 0.06 0.05 0.03 0.03 0.04 0.06 0.06 0.08 0.08 0.05 0.03 0.02 0.01 0.01 0.01 0.02 0.02 0.02 0.02 0.02 0.02 0.02 0.02 0.02 0.02 0.02 0.03 0.04 0.05 0.04 0.04 0.03 0.03 0.02 0.02 0.02 0.02 0.02 0.03 0.04 0.05
0.07 0.06 0.08 0.08 0.05 0.06 0.07 0.07 0.05 0.04 0.04 0.03 0.01 0.01 0.01 0.01 0.02 0.02 0.03 0.02 0.01 0.01 0.02 0.02 0.01 0.01 0.01 0.02 0.02 0.02 0.03 0.04 0.04 0.03 0.02 0.02 0.02 0.02 0.03 0.03 0.03 0.03 0.05
0.06 0.06 0.08 0.10 0.09 0.10 0.08 0.06 0.03 0.02 0.02 0.01 0.01 0.01 0.01 0.01 0.02 0.02 0.02 0.01 0.01 0.01 0.01 0.02 0.01 0.01 0.02 0.03 0.03 0.03 0.02 0.03 0.03 0.03 0.02 0.03 0.03 0.03 0.03 0.04 0.04 0.04 0.04
0.04 0.05 0.06 0.07 0.05 0.04 0.03 0.02 0.02 0.01 0.01 0.01 0.00 0.01 0.01 0.01 0.01 0.02 0.01 0.01 0.00 0.00 0.01 0.01 0.01 0.01 0.02 0.03 0.03 0.03 0.03 0.03 0.03 0.03 0.03 0.04 0.04 0.04 0.04 0.04 0.05 0.05 0.05
0.03 0.04 0.03 0.04 0.03 0.02 0.02 0.01 0.01 0.01 0.01 0.01 0.01 0.01 0.01 0.01 0.01 0.01 0.01 0.01 0.00 0.00 0.00 0.01 0.01 0.01 0.01 0.02 0.02 0.02 0.02 0.02 0.03 0.03 0.03 0.03 0.04 0.04 0.04 0.04 0.04 0.04 0.05
0.02 0.02 0.03 0.02 0.02 0.02 0.01 0.01 0.01 0.01 0.01 0.00 0.00 0.00 0.00 0.01 0.01 0.01 0.01 0.01 0.01 0.00 0.00 0.00 0.01 0.01 0.01 0.01 0.01 0.02 0.02 0.02 0.02 0.02 0.02 0.02 0.02 0.03 0.03 0.03 0.04 0.04 0.05
0.01 0.01 0.01 0.01 0.02 0.02 0.01 0.00 0.00 0.00 0.00 0.00 0.00 0.00 0.00 0.00 0.00 0.00 0.00 0.01 0.00 0.00 0.00 0.00 0.01 0.01 0.01 0.01 0.02 0.02 0.03 0.03 0.02 0.02 0.02 0.02 0.02 0.02 0.02 0.03 0.03 0.03 0.03
0.01 0.01 0.01 0.01 0.01 0.01 0.01 0.01 0.00 0.00 0.00 0.00 0.00 0.00 0.00 0.00 0.00 0.00 0.00 0.00 0.00 0.00 0.00 0.00 0.01 0.01 0.01 0.01 0.02 0.02 0.02 0.03 0.03 0.03 0.03 0.02 0.03 0.03 0.03 0.04 0.04 0.03 0.02
0.01 0.01 0.01 0.01 0.01 0.01 0.02 0.02 0.00 0.00 0.00 0.00 0.00 0.00 0.00 0.00 0.00 0.00 0.00 0.00 0.00 0.00 0.00 0.00 0.01 0.01 0.01 0.01 0.01 0.01 0.01 0.02 0.03 0.04 0.04 0.03 0.02 0.02 0.02 0.02 0.02 0.02 0.02
0.01 0.01 0.01 0.01 0.01 0.01 0.01 0.01 0.01 0.00 0.00 0.00 0.00 0.00 0.00 0.00 0.00 0.00 0.00 0.00 0.00 0.00 0.01 0.01 0.01 0.01 0.01 0.00 0.00 0.01 0.01 0.02 0.02 0.02 0.02 0.02 0.02 0.01 0.02 0.03 0.04 0.05 0.03
0.01 0.01 0.01 0.01 0.01 0.01 0.01 0.01 0.00 0.00 0.00 0.00 0.00 0.00 0.00 0.00 0.00 0.00 0.00 0.00 0.00 0.00 0.00 0.01 0.01 0.01 0.01 0.01 0.01 0.01 0.01 0.02 0.02 0.02 0.02 0.02 0.02 0.03 0.04 0.04 0.04 0.04 0.03
0.01 0.01 0.01 0.01 0.01 0.01 0.01 0.00 0.00 0.00 0.00 0.00 0.00 0.00 0.00 0.00 0.00 0.01 0.01 0.01 0.01 0.01 0.00 0.00 0.01 0.01 0.01 0.02 0.02 0.02 0.02 0.02 0.02 0.03 0.03 0.02 0.03 0.03 0.04 0.03 0.03 0.03 0.02
0.01 0.01 0.00 0.01 0.01 0.01 0.01 0.01 0.01 0.01 0.01 0.01 0.01 0.02 0.02 0.02 0.02 0.02 0.01 0.01 0.01 0.01 0.00 0.00 0.01 0.01 0.02 0.02 0.02 0.03 0.03 0.02 0.02 0.02 0.03 0.03 0.03 0.02 0.02 0.02 0.02 0.02 0.02
0.01 0.00 0.00 0.00 0.00 0.00 0.00 0.00 0.01 0.02 0.02 0.02 0.02 0.02 0.02 0.02 0.01 0.01 0.01 0.01 0.01 0.01 0.00 0.00 0.01 0.01 0.02 0.03 0.03 0.03 0.03 0.03 0.03 0.03 0.03 0.03 0.02 0.02 0.02 0.02 0.01 0.02 0.02
0.00 0.01 0.01 0.00 0.00 0.00 0.00 0.00 0.00 0.00 0.00 0.00 0.00 0.00 0.00 0.00 0.00 0.00 0.00 0.00 0.00 0.00 0.00 0.00 0.00 0.01 0.02 0.03 0.03 0.03 0.03 0.04 0.03 0.03 0.03 0.02 0.02 0.01 0.01 0.01 0.01 0.01 0.01
0.01 0.01 0.01 0.01 0.00 0.00 0.00 0.00 0.00 0.00 0.00 0.00 0.00 0.00 0.00 0.00 0.00 0.00 0.00 0.00 0.00 0.00 0.00 0.00 0.00 0.01 0.01 0.01 0.02 0.02 0.03 0.03 0.04 0.03 0.03 0.02 0.01 0.01 0.01 0.00 0.00 0.00 0.01
0.01 0.01 0.01 0.01 0.01 0.00 0.00 0.00 0.00 0.00 0.00 0.00 0.00 0.00 0.00 0.00 0.00 0.00 0.00 0.00 0.00 0.00 0.00 0.00 0.00 0.01 0.01 0.01 0.01 0.01 0.02 0.03 0.03 0.03 0.03 0.02 0.01 0.01 0.01 0.00 0.01 0.01 0.01
0.01 0.01 0.01 0.01 0.01 0.01 0.00 0.00 0.00 0.00 0.00 0.00 0.00 0.00 0.00 0.00 0.00 0.00 0.00 0.00 0.00 0.00 0.00 0.00 0.00 0.00 0.01 0.01 0.01 0.01 0.01 0.02 0.03 0.03 0.03 0.02 0.01 0.01 0.01 0.01 0.01 0.01 0.01
0.01 0.01 0.01 0.01 0.01 0.01 0.01 0.00 0.00 0.00 0.00 0.00 0.00 0.00 0.00 0.00 0.00 0.00 0.00 0.00 0.00 0.00 0.00 0.00 0.00 0.00 0.00 0.01 0.01 0.01 0.01 0.01 0.02 0.03 0.03 0.02 0.01 0.01 0.01 0.01 0.01 0.01 0.01
0.01 0.01 0.00 0.00 0.00 0.01 0.01 0.00 0.00 0.00 0.00 0.00 0.00 0.00 0.00 0.00 0.00 0.00 0.00 0.00 0.00 0.00 0.00 0.00 0.00 0.00 0.00 0.01 0.01 0.01 0.01 0.01 0.02 0.02 0.02 0.02 0.01 0.01 0.01 0.01 0.01 0.00 0.01
0.01 0.01 0.01 0.00 0.00 0.00 0.00 0.00 0.00 0.00 0.00 0.00 0.00 0.00 0.00 0.00 0.00 0.00 0.00 0.00 0.00 0.00 0.00 0.00 0.00 0.00 0.00 0.00 0.01 0.01 0.01 0.01 0.01 0.02 0.02 0.01 0.01 0.01 0.01 0.01 0.00 0.00 0.00
MSLP
1018.18 1018.19 1018.25 1018.33 1018.42 1018.50 1018.56 1018.58 1018.58 1018.55 1018.52 1018.49 1018.47 1018.47 1018.47 1018.47 1018.44 1018.39 1018.31 1018.20 1018.07 1017.93 1017.79 1017.65 1017.50 1017.33 1017.11 1016.81 1016.41 1015.91 1015.28 1014.56 1013.75 1012.91 1012.06 1011.25 1010.50 1009.83 1009.24 1008.73 1008.27 1007.84 1007.42
1018.69 1018.63 1018.61 1018.63 1018.66 1018.69 1018.70 1018.69 1018.66 1018.61 1018.55 1018.50 1018.46 1018.44 1018.42 1018.40 1018.36 1018.29 1018.19 1018.05 1017.87 1017.68 1017.48 1017.27 1017.05 1016.82 1016.56 1016.24 1015.85 1015.37 1014.80 1014.13 1013.39 1012.60 1011.80 1011.01 1010.26 1009.57 1008.94 1008.37 1007.85 1007.35 1006.86
1019.03 1018.95 1018.90 1018.87 1018.87 1018.86 1018.84 1018.80 1018.74 1018.67 1018.58 1018.51 1018.45 1018.40 1018.37 1018.33 1018.27 1018.18 1018.05 1017.88 1017.66 1017.42 1017.16 1016.88 1016.60 1016.31 1016.00 1015.66 1015.27 1014.82 1014.29 1013.68 1013.01 1012.29 1011.54 1010.79 1010.06 1009.37 1008.71 1008.10 1007.52 1006.96 1006.41
1019.22 1019.15 1019.09 1019.07 1019.05 1019.03 1018.99 1018.92 1018.83 1018.73 1018.61 1018.51 1018.42 1018.35 1018.28 1018.22 1018.15 1018.04 1017.88 1017.68 1017.43 1017.14 1016.82 1016.48 1016.14 1015.80 1015.45 1015.08 1014.68 1014.24 1013.75 1013.20 1012.59 1011.93 1011.24 1010.54 1009.84 1009.16 1008.51 1007.87 1007.26 1006.65 1006.04
1019.29 1019.24 1019.21 1019.20 1019.19 1019.16 1019.11 1019.03 1018.91 1018.77 1018.63 1018.49 1018.36 1018.26 1018.16 1018.07 1017.96 1017.83 1017.65 1017.42 1017.14 1016.81 1016.45 1016.06 1015.67 1015.28 1014.89 1014.50 1014.09 1013.65 1013.18 1012.66 1012.10 1011.50 1010.86 1010.21 1009.56 1008.91 1008.27 1007.64 1007.01 1006.38 1005.73
1019.26 1019.25 1019.26 1019.27 1019.27 1019.25 1019.19 1019.09 1018.96 1018.79 1018.61 1018.44 1018.27 1018.12 1017.98 1017.85 1017.71 1017.54 1017.34 1017.08 1016.77 1016.41 1016.02 1015.61 1015.19 1014.76 1014.34 1013.92 1013.49 1013.05 1012.59 1012.09 1011.56 1011.00 1010.41 1009.81 1009.20 1008.59 1007.98 1007.37 1006.76 1006.13 1005.47
1019.18 1019.21 1019.25 1019.28 1019.30 1019.28 1019.22 1019.11 1018.95 1018.76 1018.55 1018.34 1018.13 1017.94 1017.75 1017.58 1017.39 1017.18 1016.94 1016.66 1016.33 1015.96 1015.56 1015.13 1014.69 1014.25 1013.81 1013.37 1012.93 1012.48 1012.01 1011.52 1011.00 1010.46 1009.91 1009.34 1008.78 1008.21 1007.65 1007.08 1006.49 1005.88 1005.24
1019.09 1019.14 1019.19 1019.24 1019.26 1019.24 1019.18 1019.06 1018.89 1018.69 1018.45 1018.20 1017.95 1017.71 1017.48 1017.26 1017.02 1016.78 1016.50 1016.20 1015.86 1015.48 1015.08 1014.66 1014.22 1013.78 1013.34 1012.89 1012.44 1011.98 1011.50 1011.00 1010.49 1009.96 1009.42 1008.88 1008.35 1007.82 1007.30 1006.78 1006.24 1005.66 1005.05
1019.00 1019.05 1019.11 1019.16 1019.17 1019.15 1019.08 1018.96 1018.78 1018.56 1018.31 1018.04 1017.76 1017.48 1017.20 1016.93 1016.65 1016.37 1016.07 1015.75 1015.40 1015.03 1014.65 1014.25 1013.83 1013.41 1012.98 1012.55 1012.09 1011.62 1011.13 1010.62 1010.10 1009.57 1009.03 1008.51 1008.00 1007.50 1007.01 1006.53 1006.02 1005.49 1004.91
1018.93 1018.98 1019.02 1019.05 1019.06 1019.02 1018.95 1018.82 1018.64 1018.41 1018.15 1017.87 1017.57 1017.26 1016.95 1016.64 1016.32 1016.01 1015.69 1015.36 1015.02 1014.67 1014.31 1013.94 1013.57 1013.19 1012.79 1012.37 1011.93 1011.46 1010.96 1010.44 1009.91 1009.36 1008.82 1008.30 1007.79 1007.31 1006.84 1006.37 1005.90 1005.39 1004.84
1018.87 1018.90 1018.92 1018.94 1018.92 1018.87 1018.79 1018.65 1018.47 1018.25 1017.98 1017.69 1017.38 1017.06 1016.72 1016.39 1016.05 1015.72 1015.39 1015.06 1014.73 1014.41 1014.09 1013.77 1013.45 1013.11 1012.76 1012.37 1011.95 1011.50 1011.01 1010.48 1009.94 1009.38 1008.83 1008.29 1007.78 1007.29 1006.82 1006.36 1005.88 1005.39 1004.85
1018.80 1018.81 1018.82 1018.81 1018.77 1018.71 1018.61 1018.47 1018.29 1018.07 1017.81 1017.52 1017.21 1016.88 1016.54 1016.19 1015.84 1015.50 1015.17 1014.85 1014.55 1014.27 1013.99 1013.72 1013.46 1013.18 1012.87 1012.53 1012.15 1011.72 1011.24 1010.72 1010.18 1009.62 1009.05 1008.50 1007.97 1007.46 1006.97 1006.49 1006.01 1005.50 1004.96
1018.68 1018.69 1018.68 1018.66 1018.61 1018.53 1018.42 1018.28 1018.09 1017.88 1017.62 1017.34 1017.03 1016.70 1016.35 1016.01 1015.66 1015.32 1015.00 1014.70 1014.43 1014.19 1013.96 1013.75 1013.54 1013.32 1013.07 1012.78 1012.44 1012.05 1011.60 1011.11 1010.57 1010.01 1009.45 1008.88 1008.33 1007.80 1007.29 1006.78 1006.26 1005.73 1005.18
1018.47 1018.49 1018.49 1018.46 1018.41 1018.32 1018.20 1018.05 1017.87 1017.65 1017.40 1017.12 1016.81 1016.48 1016.14 1015.79 1015.45 1015.12 1014.82 1014.55 1014.31 1014.11 1013.93 1013.78 1013.62 1013.46 1013.27 1013.04 1012.76 1012.41 1012.00 1011.54 1011.03 1010.49 1009.93 1009.37 1008.81 1008.26 1007.71 1007.18 1006.63 1006.07 1005.50
1018.15 1018.20 1018.21 1018.19 1018.14 1018.06 1017.94 1017.79 1017.60 1017.38 1017.12 1016.83 1016.52 1016.19 1015.84 1015.50 1015.16 1014.85 1014.57 1014.32 1014.12 1013.96 1013.84 1013.73 1013.64 1013.54 1013.41 1013.24 1013.01 1012.72 1012.36 1011.94 1011.47 1010.96 1010.43 1009.88 1009.32 1008.76 1008.21 1007.65 1007.08 1006.50 1005.91
1017.70 1017.78 1017.82 1017.83 1017.80 1017.73 1017.62 1017.47 1017.27 1017.04 1016.77 1016.47 1016.14 1015.79 1015.44 1015.09 1014.76 1014.46 1014.20 1013.99 1013.82 1013.70 1013.63 1013.58 1013.54 1013.49 1013.42 1013.31 1013.14 1012.90 1012.61 1012.24 1011.82 1011.36 1010.86 1010.34 1009.80 1009.26 1008.71 1008.15 1007.58 1007.00 1006.41
1017.13 1017.24 1017.33 1017.37 1017.37 1017.32 1017.22 1017.07 1016.88 1016.63 1016.34 1016.02 1015.67 1015.30 1014.94 1014.58 1014.25 1013.96 1013.71 1013.53 1013.40 1013.33 1013.30 1013.30 1013.32 1013.33 1013.32 1013.26 1013.15 1012.97 1012.73 1012.42 1012.05 1011.64 1011.18 1010.70 1010.20 1009.69 1009.16 1008.62 1008.08 1007.52 1006.96
1016.46 1016.60 1016.72 1016.80 1016.84 1016.82 1016.74 1016.60 1016.40 1016.15 1015.84 1015.50 1015.12 1014.73 1014.34 1013.97 1013.64 1013.35 1013.13 1012.97 1012.89 1012.86 1012.88 1012.94 1013.02 1013.08 1013.13 1013.12 1013.06 1012.93 1012.74 1012.48 1012.16 1011.80 1011.39 1010.95 1010.49 1010.02 1009.54 1009.04 1008.54 1008.03 1007.51
1015.72 1015.88 1016.03 1016.15 1016.22 1016.23 1016.18 1016.05 1015.86 1015.60 1015.28 1014.91 1014.51 1014.10 1013.69 1013.31 1012.97 1012.70 1012.49 1012.37 1012.33 1012.35 1012.43 1012.55 1012.68 1012.80 1012.90 1012.94 1012.93 1012.85 1012.69 1012.47 1012.19 1011.86 1011.49 1011.09 1010.67 1010.25 1009.81 1009.37 1008.92 1008.47 1008.02
1014.95 1015.11 1015.27 1015.40 1015.50 1015.54 1015.52 1015.42 1015.23 1014.98 1014.65 1014.27 1013.86 1013.43 1013.01 1012.62 1012.29 1012.03 1011.85 1011.77 1011.77 1011.85 1011.99 1012.16 1012.35 1012.53 1012.68 1012.77 1012.79 1012.74 1012.61 1012.42 1012.16 1011.85 1011.50 1011.13 1010.75 1010.36 1009.96 1009.57 1009.18 1008.80 1008.41
1014.18 1014.31 1014.45 1014.59 1014.70 1014.76 1014.76 1014.68 1014.51 1014.27 1013.95 1013.58 1013.16 1012.73 1012.31 1011.92 1011.61 1011.37 1011.23 1011.18 1011.24 1011.37 1011.57 1011.81 1012.06 1012.29 1012.48 1012.61 1012.67 1012.64 1012.53 1012.34 1012.09 1011.79 1011.45 1011.09 1010.72 1010.36 1009.99 1009.64 1009.30 1008.97 1008.65
1013.44 1013.50 1013.60 1013.71 1013.81 1013.87 1013.88 1013.82 1013.68 1013.46 1013.16 1012.80 1012.40 1011.98 1011.58 1011.22 1010.93 1010.72 1010.62 1010.63 1010.73 1010.92 1011.18 1011.47 1011.78 1012.06 1012.29 1012.46 1012.53 1012.52 1012.42 1012.24 1011.98 1011.68 1011.34 1010.98 1010.61 1010.25 1009.91 1009.58 1009.27 1008.97 1008.70
1012.73 1012.70 1012.72 1012.77 1012.84 1012.89 1012.89 1012.84 1012.72 1012.52 1012.26 1011.93 1011.56 1011.18 1010.81 1010.48 1010.23 1010.07 1010.01 1010.06 1010.22 1010.46 1010.77 1011.11 1011.46 1011.79 1012.06 1012.25 1012.35 1012.35 1012.26 1012.08 1011.83 1011.52 1011.17 1010.80 1010.43 1010.06 1009.72 1009.40 1009.10 1008.82 1008.56
1012.06 1011.91 1011.82 1011.80 1011.80 1011.81 1011.79 1011.74 1011.64 1011.47 1011.23 1010.95 1010.62 1010.29 1009.97 1009.69 1009.49 1009.37 1009.36 1009.45 1009.65 1009.94 1010.29 1010.67 1011.06 1011.42 1011.72 1011.94 1012.07 1012.09 1012.02 1011.85 1011.60 1011.29 1010.94 1010.57 1010.19 1009.82 1009.47 1009.14 1008.84 1008.56 1008.30
1011.42 1011.14 1010.93 1010.80 1010.72 1010.67 1010.62 1010.56 1010.45 1010.30 1010.11 1009.86 1009.59 1009.31 1009.05 1008.83 1008.68 1008.61 1008.64 1008.77 1009.01 1009.33 1009.70 1010.11 1010.53 1010.92 1011.25 1011.50 1011.65 1011.71 1011.66 1011.52 1011.30 1011.01 1010.67 1010.31 1009.94 1009.57 1009.21 1008.87 1008.55 1008.26 1007.98
1010.83 1010.41 1010.08 1009.83 1009.66 1009.53 1009.43 1009.33 1009.22 1009.08 1008.91 1008.71 1008.49 1008.27 1008.06 1007.90 1007.80 1007.78 1007.85 1008.01 1008.27 1008.61 1009.01 1009.43 1009.86 1010.27 1010.63 1010.91 1011.10 1011.20 1011.19 1011.10 1010.92 1010.68 1010.38 1010.05 1009.70 1009.34 1008.98 1008.63 1008.30 1007.98 1007.68
Thickness
5668 5666 5664 5662 5660 5657 5654 5652 5651 5649 5647 5644 5642 5641 5639 5637 5634 5631 5628 5626 5624 5621 5619 5616 5614 5612 5609 5607 5605 5602 5600 5598 5598 5602 5602 5603 5603 5603 5604 5605 5606 5607 5608
5662 5662 5659 5657 5655 5652 5650 5649 5647 5644 5642 5640 5638 5636 5635 5632 5630 5627 5624 5622 5619 5617 5614 5612 5610 5608 5604 5602 5600 5598 5596 5594 5593 5595 5597 5597 5597 5597 5598 5599 5600 5601 5602
5659 5657 5655 5652 5650 5648 5646 5644 5642 5640 5638 5636 5634 5632 5630 5628 5626 5623 5620 5617 5615 5612 5610 5607 5605 5602 5599 5597 5595 5594 5592 5591 5589 5588 5590 5590 5590 5591 5591 5592 5593 5594 5595
5655 5653 5651 5649 5647 5645 5642 5640 5638 5637 5634 5632 5630 5628 5626 5624 5622 5620 5616 5613 5611 5608 5606 5603 5600 5598 5595 5593 5591 5589 5588 5586 5584 5583 5583 5584 5583 5584 5583 5585 5587 5588 5589
5652 5650 5648 5646 5644 5642 5639 5637 5635 5633 5631 5629 5626 5624 5622 5620 5618 5615 5612 5610 5607 5604 5602 5599 5597 5595 5592 5589 5588 5585 5583 5581 5580 5579 5578 5577 5578 5578 5578 5578 5579 5580 5582
5650 5647 5646 5644 5642 5639 5637 5634 5632 5629 5627 5624 5622 5619 5617 5616 5613 5611 5608 5605 5602 5599 5597 5595 5594 5592 5589 5587 5584 5582 5580 5578 5576 5574 5574 5573 5574 5573 5572 5572 5571 5572 5575
5648 5646 5644 5642 5639 5637 5634 5631 5628 5624 5622 5620 5617 5615 5613 5611 5609 5607 5604 5601 5598 5595 5593 5591 5590 5589 5585 5583 5581 5579 5576 5574 5573 5571 5570 5570 5569 5569 5567 5566 5566 5566 5567
5646 5643 5641 5639 5637 5634 5630 5627 5623 5620 5618 5615 5614 5612 5609 5608 5606 5603 5601 5597 5594 5592 5590 5588 5585 5583 5581 5578 5576 5574 5573 5572 5570 5568 5567 5567 5566 5564 5562 5561 5560 5560 5561
5643 5641 5639 5637 5634 5631 5627 5623 5621 5617 5614 5612 5610 5608 5606 5604 5602 5599 5597 5594 5591 5589 5587 5584 5582 5579 5577 5573 5571 5569 5568 5567 5566 5564 5563 5561 5560 5558 5556 5555 5554 5554 5556
5642 5640 5637 5635 5632 5629 5625 5622 5618 5615 5612 5609 5607 5605 5602 5600 5598 5596 5593 5590 5587 5585 5583 5580 5577 5573 5570 5567 5565 5563 5562 5562 5561 5560 5558 5557 5555 5554 5552 5551 5550 5548 5549
5641 5638 5636 5633 5630 5627 5623 5620 5616 5613 5610 5607 5605 5602 5599 5597 5595 5592 5589 5586 5583 5580 5578 5575 5572 5568 5565 5562 5559 5558 5556 5555 5554 5553 5553 5552 5551 5549 5548 5546 5545 5543 5543
5639 5637 5634 5631 5629 5626 5621 5617 5614 5610 5607 5604 5601 5599 5597 5594 5592 5589 5586 5582 5578 5575 5572 5570 5566 5563 5560 5557 5555 5553 5551 5549 5548 5547 5546 5546 5545 5544 5543 5542 5541 5540 5540
5636 5634 5632 5629 5626 5623 5619 5615 5611 5607 5604 5601 5598 5596 5594 5591 5589 5585 5582 5579 5575 5570 5567 5564 5560 5557 5555 5553 5551 5548 5547 5545 5543 5542 5541 5540 5539 5538 5538 5538 5538 5537 5537
5634 5631 5629 5626 5623 5620 5617 5614 5610 5606 5602 5599 5596 5594 5591 5588 5586 5582 5579 5575 5571 5567 5563 5559 5556 5553 5550 5548 5546 5545 5542 5539 5537 5536 5535 5535 5534 5534 5533 5533 5532 5533 5533
5631 5629 5627 5624 5621 5618 5614 5611 5609 5606 5602 5599 5595 5592 5588 5585 5582 5578 5574 5571 5566 5561 5557 5554 5552 5550 5548 5545 5543 5540 5538 5535 5533 5531 5531 5531 5530 5529 5529 5528 5527 5527 5527
5628 5627 5624 5621 5619 5616 5613 5610 5608 5605 5603 5599 5595 5590 5586 5583 5579 5575 5570 5566 5562 5557 5553 5550 5547 5544 5542 5540 5538 5536 5533 5531 5529 5527 5527 5526 5526 5526 5525 5524 5523 5522 5522
5626 5625 5622 5620 5618 5615 5612 5609 5607 5605 5602 5598 5595 5590 5585 5581 5577 5573 5569 5564 5559 5554 5551 5547 5544 5541 5538 5535 5533 5530 5528 5526 5524 5523 5522 5522 5522 5521 5520 5519 5518 5517 5517
5625 5623 5621 5618 5616 5614 5611 5608 5605 5602 5599 5597 5593 5589 5585 5580 5575 5571 5566 5562 5557 5552 5548 5544 5541 5538 5535 5531 5528 5526 5523 5521 5520 5518 5517 5516 5515 5515 5514 5513 5512 5511 5511
5623 5621 5619 5617 5615 5612 5609 5606 5604 5600 5597 5594 5591 5588 5584 5578 5573 5568 5563 5559 5555 5551 5546 5542 5538 5535 5531 5528 5525 5521 5518 5516 5515 5513 5512 5510 5509 5508 5508 5507 5506 5504 5504
5622 5620 5617 5615 5613 5611 5608 5605 5602 5599 5596 5592 5588 5585 5581 5576 5571 5566 5561 5556 5552 5548 5544 5541 5537 5533 5529 5525 5521 5517 5514 5512 5510 5508 5506 5504 5503 5502 5501 5501 5500 5500 5500
5621 5619 5616 5614 5612 5610 5607 5604 5601 5597 5594 5590 5587 5583 5578 5573 5569 5564 5559 5554 5550 5546 5542 5538 5534 5530 5526 5522 5518 5514 5511 5508 5505 5503 5501 5499 5497 5496 5495 5495 5494 5494 5494
5620 5618 5616 5613 5611 5608 5605 5603 5599 5595 5592 5588 5585 5581 5575 5571 5567 5563 5558 5553 5549 5544 5540 5536 5532 5527 5522 5518 5514 5510 5507 5504 5502 5499 5497 5495 5493 5492 5492 5491 5491 5490 5489
5618 5617 5614 5612 5609 5607 5604 5601 5597 5593 5590 5586 5583 5578 5574 5569 5565 5561 5556 5551 5546 5542 5538 5533 5528 5524 5519 5515 5511 5507 5504 5501 5497 5494 5492 5491 5490 5489 5488 5487 5486 5486 5485
5617 5615 5613 5611 5608 5606 5603 5599 5596 5592 5588 5584 5580 5576 5572 5567 5563 5559 5554 5549 5544 5540 5535 5531 5526 5522 5517 5513 5508 5504 5501 5498 5495 5492 5490 5488 5487 5486 5485 5484 5483 5481 5480
5615 5613 5612 5609 5607 5604 5601 5598 5594 5591 5587 5583 5579 5575 5571 5566 5561 5556 5552 5547 5542 5538 5533 5529 5524 5520 5515 5511 5506 5503 5499 5497 5494 5491 5489 5487 5485 5483 5482 5480 5479 5477 5476
5613 5612 5610 5608 5605 5602 5599 5596 5593 5589 5585 5581 5577 5573 5568 5564 5559 5554 5550 5545 5540 5536 5531 5527 5522 5518 5513 5509 5505 5502 5499 5496 5493 5490 5487 5485 5483 5481 5479 5477 5475 5473 5472